Location: *
(42.0175°N, 9.4056°E)
Time: 23:19:17
(UTC+00:00)

SJ 16-02 - Pass Details

Date: 25 August 2019
Orbit: 605 x 618 km, 75.0° (Epoch: 17 September)

Event Time Altitude Azimuth Distance (km) Brightness Sun altitude
Rises 20:14:42 0° 213° (SSW) 2,862 4.7 -21.7°
Reaches altitude 10° 20:17:01 10° 220° (SW) 1,964 3.9 -22.1°
Maximum altitude 20:21:12 44° 293° (WNW) 860 2.5 -22.7°
Drops below altitude 10° 20:25:27 10° 6° (N) 1,985 4.4 -23.3°
Sets 20:27:48 0° 13° (NNE) 2,897 5.2 -23.6°
